User: anonymous   Login
Location: Prairie State College
(41.5244°N, 87.6382°W)
Time: 15:16:50
(UTC-05:00)
Language:

ARGOS Delta rocket - Orbit

View from above orbital plane
View from above orbital plane
View from above satellite
View from above satellite

Ground track
Ground track

The orbit data is extracted from the following two-line orbital elements,

1 25637U 99008D   16178.91019745  .00000066  00000-0  24270-4 0  9999
2 25637  96.4555 156.2560 0142009 331.8154  78.3773 14.46440274914257
Epoch (UTC): 26 June 2016 21:50:41
Eccentricity: 0.0142009
inclination: 96.4555°
perigee height: 636 km
apogee height: 838 km
right ascension of ascending node: 156.2560°
argument of perigee: 331.8154°
revolutions per day: 14.46440274
mean anomaly at epoch: 78.3773°
orbit number at epoch: 91425

The dashed part of the orbit path shows where the satellite is in the earth's shadow,  

DLR